BLOCK DM-SL R/B, 27855

Orbit data source: Space-Track

BLOCK DM-SL R/B, 27855 is space debris in HEO originally from a launch on Fri, 08 Aug 2003 UTC launched from the Sea Launch (SEAL). Debris objects in space refer to the collection of defunct objects orbiting the Earth. Examples of debris include non-operational satellites, rocket bodies, and fragments generated from explosions, collisions, or faulty payload assembly.

Loading next visibility...
BLOCK DM-SL R/B details
Identifier
27855, 2003-034B
Orbit
HEO
Last TLE update18 hours ago
Origin
Flag of USSeaLaunch (US / SEAL)
ManufacturerRKKE
MissionSpacecraft
Bus & MotorBLOK DM2, 11D58M
Mass~3,210 kg wet, 3,210 kg dry
Launch date (UTC)
2003-08-08 (21 years ago)
Launch vehicleUnknown
Launch site
Sea Launch (SEAL)
Object type
Payload
Rocket body
Debris
Shape & HBRCyl, 6.3 m
Radar Cross Section23.684 m², Large (>1 m²)

Expand to show TLE details & history

TLE from 18 hours ago
0 BLOCK DM-SL R/B
1 27855U 03034B   24360.65276715 -.00000032  00000-0 -10272-3 0  9993
2 27855   0.1662  81.1547 7135737 319.2400  25.6517  2.24664690175561
Epoch: 2024-12-25T15:39Z
Definitive object data (Epoch: 2024-12-25T15:39:59.081Z)
Latitude0.18062°
Longitude-178.32767°
Altitude9,821.558 km
Speed5.746 km/s
True Right ascension10h 05m 14s
True Declination0° 10' 49"
Sunlit
Object was in daylight at TLE epoch
Visualization TLE readout
Latitude0.01354°
Longitude-79.503°
Altitude25,579.234 km
Speed2.959 km/s
Apparent Right ascension17h 11m 39s
Apparent Declination-6° 49' 20"
Sunlit
Object is in daylight
Visualization observer readout
Local Sidereal Time09:19:37
Azimuth76.647° E
Elevation-25.712°
Doppler factor1
Orbital elements
Apogee altitude35,827.787 km
Perigee altitude676.644 km
Semi-major axis24,630.353 km
Eccentricity0.7135737
Inclination0.1662°
RAAN81.1547°
Arg. of periapsis319.24°
True anomaly111.13792°
Mean anomaly25.6517°
Eccentric anomaly61.6241°
Mean motion0.56148 °/min
BSTAR-0.00010272
Orbital period641.16 mins
Loading maneuver chart data...
Loading historical data...
Loading historical data...
Loading historical data...
Loading historical data...
Loading historical data...
Loading historical data...
Loading historical data...
Other satellites on launch #34 in the year 2003 (2003-08-08 UTC)

BLOCK DM-SL R/B Visibility forecast

Observer location: undefined°, undefined

Span
Click to sort rows by Start time (UTC) header in descending order
Start Az.
Max El. time (UTC)
Max El. Az.
Max El.
End time (UTC)
End Az.
584 mins2024-12-26 12:54:30.999Z232.695° WSW2024-12-26 15:07:30.999Z208.328° SW31.938°2024-12-26 22:38:30.999Z181.639° SSW
|